Back to catalog

SL-8 R/B

AliveLEO
NORAD 22081·ROCKET BODY·🇷🇺 Russia

Launched Aug 12, 1992 from Plesetsk Cosmodrome

Loading…

Next Passes (next 24 hours)

TLE

FreshSource: Space-Track

Epoch: Sep 14, 2026, 15:26 UTC

1 22081U 92053B   26257.64361716  .00000107  00000-0  46483-4 0  9995
2 22081  74.0449  23.7083 0036234 246.2061 113.5290 14.34896371782290

Track SL-8 R/B in real time with AllMySat

Download on the App Store